Regional Weather Roundup
Issued by NWS

Home | Current Version | Previous Version | Text Only | Print | Product List | Glossary Off
Versions: 1 2 3 4 5 6 7 8 9 10 11 12 13 14 15 16 17 18 19 20 21 22 23 24 25 26 27 28 29 30 31 32 33 34 35 36 37 38 39 40 41 42 43 44 45 46 47 48 49 50

000
ASUS43 KLOT 261708
RWRIL

ILLINOIS REGIONAL WEATHER ROUNDUP
NATIONAL WEATHER SERVICE CHICAGO/ROMEOVILLE IL
1200 PM CDT SUN APR 26 2015

NOTE: "FAIR" INDICATES FEW OR NO CLOUDS BELOW 12,000 FEET WITH NO
SIGNIFICANT WEATHER AND/OR OBSTRUCTIONS TO VISIBILITY.

* THESE STATIONS ARE NOT UNDER NWS QUALITY CONTROL. THEY ALSO MAY NOT
  REPORT WEATHER SUCH AS PRECIPITATION OR FOG.

ILZ001-002-007-009-015-016-024-261800-
NORTHWEST ILLINOIS

CITY           SKY/WX    TMP DP  RH WIND       PRES   REMARKS
MOLINE         SUNNY     55  33  43 NE10      30.05S
STERLING*      SUNNY     54  36  50 NE8       30.06R
SAVANNA*       SUNNY     55  31  40 E5        30.06F
$$

ILZ003-004-008-010-011-017-018-261800-
NORTH CENTRAL ILLINOIS

CITY           SKY/WX    TMP DP  RH WIND       PRES   REMARKS
ROCKFORD       MOSUNNY   55  28  35 NE13      30.07F
FREEPORT*      SUNNY     51  30  43 NE6       30.07F
ROCHELLE*      MOSUNNY   52  34  50 NE13G20   30.05F
DE KALB*       MOSUNNY   50  33  51 NE7G17    30.05S
PERU*          SUNNY     53  34  49 E13       30.04S
$$

ILZ005-006-012>014-019>023-261800-
NORTHEAST ILLINOIS

CITY           SKY/WX    TMP DP  RH WIND       PRES   REMARKS
CHICAGO-OHARE  MOSUNNY   53  29  39 NE12      30.03S
CHICAGO-MIDWAY SUNNY     54  30  40 NE15      30.03S
AURORA         SUNNY     53  30  41 NE13G18   30.03F
LANSING*       SUNNY     49  32  51 N8        30.02F
JOLIET*        SUNNY     55  32  42 NE8G17    30.02S
WAUKEGAN       SUNNY     49  32  52 N10       30.04S
DUPAGE AIRPORT SUNNY     53  30  41 NE14G21   30.02F
KANKAKEE*      MOSUNNY   54  37  52 NE17      30.01F
WHEELING       SUNNY     51  30  44 NE10      30.04S
MORRIS*        SUNNY     54  33  45 E9        30.01R
ROMEOVILLE*    SUNNY     53  30  41 NE16      30.02S
NORTHERLY ISL    N/A     44  35  70 MISG        N/A
$$

LMZ740>746-261800-
SOUTHERN LAKE MICHIGAN

STATION/POSITION SKY/WX   TEMP    WIND        PRES    VSBY  WAVE
                          AIR SEA DIR/SP/G                  HT/PER
                          (F)     (DEG/KT/KT) (MB)    (MI)  (FT/S)
HARRISON CRIB              39     340/ 14/ 16   N/A
BURNHAM HARBOR             43     350/ 14       N/A
CALUMET HARBOR             44     330/ 12/ 16   N/A
BURNS HARBOR               42      10/ 13/ 16 1017.3R
MICHIGAN CITY              41     340/ 16/ 17   N/A
MICHIGAN CITY 6N           39 45  360/ 12/ 14   N/A           3/ 6
$$

ILZ025>027-034>036-040-047-049-050-058-095>099-261800-
WEST-CENTRAL ILLINOIS

CITY           SKY/WX    TMP DP  RH WIND       PRES   REMARKS
QUINCY         SUNNY     57  36  45 NE9       30.01R
GALESBURG*     SUNNY     54  36  51 N14       30.02F
MACOMB*        SUNNY     54  38  53 NE14G20   30.04S
JACKSONVILLE*  SUNNY     56  39  52 N13G21    30.00R
PITTSFIELD*    SUNNY     56  37  50 N8        30.00S
$$

ILZ028>032-037-038-041>044-048-051>054-059>061-261800-
CENTRAL ILLINOIS

CITY           SKY/WX    TMP DP  RH WIND       PRES   REMARKS
PONTIAC        MOSUNNY   53  39  58 NE18      30.02F
BLOOMINGTON    MOSUNNY   54  37  52 NE16G26   30.01S
DECATUR        SUNNY     55  37  50 NE13      29.98S
PEORIA         SUNNY     57  34  41 E12G22    30.02S
LACON*         SUNNY     53  34  48 E12G20    30.02F
LINCOLN*       SUNNY     55  37  50 N13       29.99S
SPRINGFIELD    SUNNY     57  39  51 N13G21    29.99F
TAYLORVILLE    PTSUNNY   54  37  54 N13       29.98S
$$

ILZ033-039-045-046-055>057-062-063-261800-
EAST-CENTRAL ILLINOIS

CITY           SKY/WX    TMP DP  RH WIND       PRES   REMARKS
CHAMPAIGN      MOSUNNY   53  37  54 N12G23    29.97R
DANVILLE*      MOSUNNY   51  36  56 NE13G18   29.94S
RANTOUL*       SUNNY     54  36  51 NE16G22   29.98S
MATTOON        MOSUNNY   55  39  54 NE14      29.95R
PARIS*         SUNNY     55  40  56 N12       29.96R
$$

ILZ079-100>102-261800-
SOUTHWEST ILLINOIS

CITY           SKY/WX    TMP DP  RH WIND       PRES   REMARKS
BELLEVILLE     SUNNY     58  36  45 NE10      29.94R
CAHOKIA*       SUNNY     59  36  42 N10G21    29.96R
SPARTA*        SUNNY     55  42  61 NE7       29.94S
$$

ILZ064>066-069>071-074>076-080>082-084>086-088>090-092>094-261800-
SOUTH-CENTRAL ILLINOIS

CITY           SKY/WX    TMP DP  RH WIND       PRES   REMARKS
CARBONDALE     MOSUNNY   57  42  57 N13       29.92S
CAIRO*         CLOUDY    54  46  74 N10       29.90S
EFFINGHAM*     SUNNY     56  30  36 N7        29.96S
MARION         MOSUNNY   57  43  58 N14       29.92S
MT. VERNON     SUNNY     57  36  44 NE10G18   29.93S
CENTRALIA*     SUNNY     58  32  37 N10G18    29.93S
SALEM*         SUNNY     58  35  41 NE13      29.93S
METROPOLIS*    CLOUDY    54  47  77 N3        29.90R
$$

ILZ067-068-072-073-078-083-087-091-261800-
SOUTHEAST ILLINOIS

CITY           SKY/WX    TMP DP  RH WIND       PRES   REMARKS
LAWRENCEVILLE  SUNNY     57  37  47 N16       29.92R
FLORA*         SUNNY     56  35  44 NE12G18   29.93F
FAIRFIELD*     SUNNY     57  36  45 N13G20    29.90F
HARRISBURG*    SUNNY     57  43  59 NE10      29.92S
ROBINSON*      SUNNY     56  34  43 NE12G21   29.93S
CARMI*         SUNNY     57  34  40 NE10G17   29.90S
$$

ABBREVIATIONS USED IN REMARKS
   TC - TEMPERATURE IN CELSIUS
  WCI - WIND CHILL INDEX
   HX - HEAT INDEX
  VSB - VISIBILITY
$$




USA.gov is the U.S. government's official web portal to all federal, state and local government web resources and services.